Regional Weather Roundup
Issued by NWS

Home | Current Version | Previous Version | Graphics & Text | Print | Product List | Glossary Off
Versions: 1 2 3 4 5 6 7 8 9 10 11 12 13 14 15 16 17 18 19 20 21 22 23 24 25 26 27 28 29 30 31 32 33 34 35 36 37 38 39 40 41 42 43 44 45 46 47 48 49 50

000
ASUS43 KMKX 021221
RWRWI

WISCONSIN REGIONAL WEATHER ROUNDUP
NATIONAL WEATHER SERVICE MILWAUKEE/SULLIVAN WI
700 AM CDT THU OCT 02 2014

NOTE: "FAIR" INDICATES FEW OR NO CLOUDS BELOW 12,000 FEET WITH NO
SIGNIFICANT WEATHER AND/OR OBSTRUCTIONS TO VISIBILITY.

WIZ001-002-006>008-014>016-023>028-021300-
NORTHWEST WISCONSIN

CITY           SKY/WX    TMP DP  RH WIND       PRES   REMARKS
SUPERIOR ARPT  CLOUDY    53  53  99 CALM      29.84F
6HR MIN TEMP:  52; 6HR MAX TEMP:  54;

ASHLAND        CLOUDY    55  54  96 CALM      29.85S FOG
6HR MIN TEMP:  55; 6HR MAX TEMP:  55;

HAYWARD        CLOUDY    55  55 100 CALM      29.85S FOG
6HR MIN TEMP:  55; 6HR MAX TEMP:  55;

SIREN          CLOUDY    55  54  99 CALM      29.85S FOG
6HR MIN TEMP:  54; 6HR MAX TEMP:  55;

CUMBERLAND     FOG       54  54 100 CALM      29.85R VSB 1/4
RICE LAKE      CLOUDY    55  54  96 CALM      29.86R FOG
6HR MIN TEMP:  54; 6HR MAX TEMP:  55; 6HR PCP:  0.03;

CHETEK         FOG       53  52  99 CALM      29.84F VSB 1/2
6HR MIN TEMP:  53; 6HR MAX TEMP:  55;

LADYSMITH      CLOUDY    54  53  97 CALM      29.86F FOG
6HR MIN TEMP:  52; 6HR MAX TEMP:  54;

EAU CLAIRE     CLOUDY    56  54  93 CALM      29.84R FOG
6HR MIN TEMP:  54; 6HR MAX TEMP:  56;

MENOMONIE      CLOUDY    56  55  96 CALM      29.84S FOG
6HR MIN TEMP:  55; 6HR MAX TEMP:  57;

NEW RICHMOND   CLOUDY    56  56 100 CALM      29.85R FOG
6HR MIN TEMP:  55; 6HR MAX TEMP:  56;

OSCEOLA        CLOUDY    56  56 100 CALM      29.87S FOG
6HR MIN TEMP:  56; 6HR MAX TEMP:  56;

$$

WIZ003>005-009-010-017-018-021300-
NORTH CENTRAL WISCONSIN

CITY           SKY/WX    TMP DP  RH WIND       PRES   REMARKS
MANITOWISH WTR CLOUDY    53  53 100 SE3       29.86S FOG
6HR MIN TEMP:  53; 6HR MAX TEMP:  54;

ARBOR VITAE    CLOUDY    55  53  94 CALM      29.87R FOG
6HR MIN TEMP:  55; 6HR MAX TEMP:  57;

WOODRUFF       CLOUDY    55  53  94 CALM      29.87R FOG
6HR MIN TEMP:  55; 6HR MAX TEMP:  57;

RHINELANDER    FOG       50  50 100 CALM      29.87S VSB 1/4
6HR MIN TEMP:  47; 6HR MAX TEMP:  53;

EAGLE RIVER    FOG       52  52 100 CALM      29.86S VSB 1/2
6HR MIN TEMP:  52; 6HR MAX TEMP:  54;

LAND O LAKES   FOG       53  53 100 CALM      29.88R VSB 1/2
6HR MIN TEMP:  53; 6HR MAX TEMP:  54;

PHILLIPS       CLOUDY    51  51 100 CALM      29.86R FOG
6HR MIN TEMP:  47; 6HR MAX TEMP:  54;

TOMAHAWK       CLOUDY    49  48  97 CALM      29.87R FOG
6HR MIN TEMP:  45; 6HR MAX TEMP:  54;

MEDFORD        FOG       50  49  98 CALM      29.85S VSB 3/4
6HR MIN TEMP:  50; 6HR MAX TEMP:  55;

MERRILL        CLOUDY    54  54  99 CALM      29.86R FOG
6HR MIN TEMP:  53; 6HR MAX TEMP:  55;

$$

WIZ029-030-035-036-043>047-021300-
CENTRAL WISCONSIN

CITY           SKY/WX    TMP DP  RH WIND       PRES   REMARKS
WAUSAU         CLOUDY    54  52  93 E6        29.84S
6HR MIN TEMP:  54; 6HR MAX TEMP:  56;

MOSINEE        CLOUDY    54  54 100 NE5       29.86S FOG
MARSHFIELD     CLEAR     53  51  93 E3        29.84S FOG
6HR MIN TEMP:  52; 6HR MAX TEMP:  58;

STEVENS POINT  CLOUDY    53  52  98 E3        29.86S FOG
6HR MIN TEMP:  51; 6HR MAX TEMP:  54; 6HR PCP:  0.03;

WAUPACA        CLOUDY    58  56  95 CALM      29.86R FOG
6HR MIN TEMP:  57; 6HR MAX TEMP:  58;

WAUTOMA        NOT AVBL
WISC RAPIDS    CLOUDY    57  55  93 CALM      29.86R
6HR MIN TEMP:  52; 6HR MAX TEMP:  58;

CAMP DOUGLAS   CLOUDY    55  55 100 CALM      29.85R
6HR MIN TEMP:  51; 6HR MAX TEMP:  60; 6HR PCP: TRACE;

$$

WIZ011>013-019>022-031-037>040-048>050-021300-
NORTHEAST WISCONSIN

CITY           SKY/WX    TMP DP  RH WIND       PRES   REMARKS
ANTIGO         CLOUDY    52  52  99 CALM      29.87S FOG
6HR MIN TEMP:  52; 6HR MAX TEMP:  52;

SHAWANO        CLOUDY    57  55  94 CALM      29.87R FOG
6HR MIN TEMP:  56; 6HR MAX TEMP:  58;

OCONTO         CLOUDY    56  56 100 CALM      29.86S
6HR MIN TEMP:  54; 6HR MAX TEMP:  56; 6HR PCP:  0.01;

STURGEON BAY   NOT AVBL
GREEN BAY      CLOUDY    58  57  97 CALM      29.86F
6HR MIN TEMP:  56; 6HR MAX TEMP:  58; 6HR PCP:  0.02;

MANITOWOC      NOT AVBL
APPLETON       CLOUDY    57  55  94 CALM      29.86S FOG
CLINTONVILLE   CLOUDY    54  54 100 CALM      29.86R FOG
OSHKOSH        CLOUDY    59  57  93 CALM      29.85R FOG
6HR MIN TEMP:  55; 6HR MAX TEMP:  59; 6HR PCP: TRACE;

$$

WIZ032>034-041-042-053>061-021300-
SOUTHWEST WISCONSIN

CITY           SKY/WX    TMP DP  RH WIND       PRES   REMARKS
LA CROSSE      CLOUDY    59  55  87 NW5       29.84R
6HR MIN TEMP:  58; 6HR MAX TEMP:  61;

SPARTA         MOCLDY    55  55  97 CALM      29.85R
6HR MIN TEMP:  52; 6HR MAX TEMP:  60;

VIROQUA        CLOUDY    60  60 100 CALM      29.84R
6HR MIN TEMP:  58; 6HR MAX TEMP:  63;

BOSCOBEL       CLOUDY    59  57  93 CALM      29.84S FOG
6HR MIN TEMP:  56; 6HR MAX TEMP:  65;

PRAIRIE DU CHI CLOUDY    61  59  94 CALM      29.83R FOG
6HR MIN TEMP:  58; 6HR MAX TEMP:  65;

PLATTEVILLE    CLOUDY    62  59  90 CALM      29.85R
6HR MIN TEMP:  60; 6HR MAX TEMP:  64;

$$

WIZ056-057-062-063-064-067-068-021300-
SOUTH CENTRAL WISCONSIN

CITY           SKY/WX    TMP DP  RH WIND       PRES   REMARKS
REEDSBURG      CLOUDY    59  57  94 CALM      29.84R
6HR MIN TEMP:  58; 6HR MAX TEMP:  62;

BARABOO/DELLS  CLOUDY    59  55  87 CALM      29.85R
6HR MIN TEMP:  58; 6HR MAX TEMP:  60;

LONE ROCK      CLOUDY    65  57  75 CALM      29.84R
6HR MIN TEMP:  62; 6HR MAX TEMP:  66;

MINERAL POINT  CLOUDY    61  59  94 CALM      29.84R
MADISON        CLOUDY    60  56  86 CALM      29.84R
6HR MIN TEMP:  59; 6HR MAX TEMP:  63;

MIDDLETON      CLOUDY    59  57  94 CALM      29.85R
6HR MIN TEMP:  56; 6HR MAX TEMP:  64;

WATERTOWN      CLOUDY    60  60 100 CALM      29.84R
6HR MIN TEMP:  60; 6HR MAX TEMP:  62; 6HR PCP:  0.03;

MONROE         CLOUDY    63  61  94 S9        29.83S
JANESVILLE     LGT RAIN  64  59  82 CALM      29.84R
$$

WIZ051-052-058>065-066-070>072-021300-
SOUTHEAST WISCONSIN

CITY           SKY/WX    TMP DP  RH WIND       PRES   REMARKS
MILWAUKEE      CLOUDY    62  56  80 S6        29.86S
6HR MIN TEMP:  61; 6HR MAX TEMP:  63; 6HR PCP:  0.01;

WAUKESHA       CLOUDY    59  57  94 SE6       29.86S FOG
MILWAUKEE/TIMM CLOUDY    61  57  88 SE3       29.86S FOG
RACINE         CLOUDY    63  57  81 S13       29.88R
6HR MIN TEMP:  62; 6HR MAX TEMP:  63; 6HR PCP: TRACE;

BURLINGTON     CLOUDY    58  56  94 CALM      29.86R
6HR MIN TEMP:  57; 6HR MAX TEMP:  61;

KENOSHA        NOT AVBL
FOND DU LAC    CLOUDY    58  56  93 CALM      29.86R
6HR MIN TEMP:  57; 6HR MAX TEMP:  60; 6HR PCP:  0.11;

SHEBOYGAN      RAIN      59  57  93 S5        29.86S FOG
WEST BEND      CLOUDY    59  55  88 E3        29.85S FOG
JUNEAU         CLOUDY    60  57  91 CALM      29.86R
6HR MIN TEMP:  59; 6HR MAX TEMP:  61;

$$

LSZ147-162-021300-
LAKE SUPERIOR

STATION/POSITION TIME  TEMP    WIND        PRES    WAVE
                       AIR SEA DIR/SP/G            HT/PER
                 (UTC) (F)     (DEG/KT/KT) (MB)    (FT/S)
W MID LAKE BUOY  1150   52 50  260/  4/  4 1010.7R   1
DEVILS ISLAND    1200   54     220/  6/  7 1011.0R
SAXON HARBOR     1100   54        CALM     1010.5R
$$

LMZ867-665-643>646-021300-
LAKE MICHIGAN

STATION/POSITION TIME  TEMP    WIND        PRES    WAVE
                       AIR SEA DIR/SP/G            HT/PER
                 (UTC) (F)     (DEG/KT/KT) (MB)    (FT/S)
CHAMBERS ISLAND  1100   56     130/  4/  8 1012.2R
S GREEN BAY BUOY 1200   59                 1012.0F
N MID LAKE BUOY  1150   57 58  130/ 12/ 16 1012.7F   2/ 5
NORTHPORT PIER   1100   56     150/  8/ 12 1012.5R


USA.gov is the U.S. government's official web portal to all federal, state and local government web resources and services.